Location: Vancouver
(49.2500°N, 123.1330°W)
Time: 14:27:24
(UTC-07:00)

Iridium 21 - Visible Passes

Search period start: 31 July 2015 00:00
Search period end: 10 August 2015 00:00
Orbit: 776 x 779 km, 86.4° (Epoch: 31 July)

Date Brightness Start Highest point End Pass type
(mag) Time Alt. Az. Time Alt. Az. Time Alt. Az.
31 Jul 7.3 01:08:30 10° NNE 01:12:39 24° ENE 01:15:04 18° ESE visible
31 Jul 5.8 02:48:41 10° NNW 02:53:46 53° W 02:55:32 36° SW visible
01 Aug 7.8 00:35:55 10° NNE 00:38:39 15° ENE 00:41:27 10° E visible
01 Aug 5.4 02:15:02 10° N 02:20:17 89° WNW 02:21:54 46° S visible
01 Aug 7.5 03:57:39 10° NW 04:00:19 14° WNW 04:02:21 11° W visible
02 Aug 6.0 01:41:33 10° N 01:46:42 54° E 01:48:17 39° SE visible
02 Aug 6.9 03:23:01 10° NNW 03:27:06 23° W 03:28:45 20° WSW visible
03 Aug 6.8 01:08:18 10° NNE 01:12:57 32° ENE 01:14:39 26° ESE visible
03 Aug 6.3 02:48:58 10° NNW 02:53:47 38° W 02:55:07 32° WSW visible
04 Aug 7.4 00:35:22 10° NNE 00:39:03 20° ENE 00:41:04 16° E visible
04 Aug 5.6 02:15:11 10° N 02:20:22 65° W 02:21:30 51° SW visible
05 Aug 7.9 00:03:15 10° NE 00:05:00 12° ENE 00:07:01 10° E visible
05 Aug 5.5 01:41:36 10° N 01:46:51 75° E 01:47:55 56° SSE visible
05 Aug 7.3 03:23:39 10° NW 03:27:01 17° WNW 03:28:22 15° W visible
06 Aug 6.2 01:08:13 10° N 01:13:12 44° E 01:14:19 38° ESE visible
06 Aug 6.7 02:49:20 10° NNW 02:53:46 28° W 02:54:47 26° WSW visible
07 Aug 6.9 00:35:03 10° NNE 00:39:23 26° ENE 00:40:44 24° E visible
07 Aug 5.9 02:15:24 10° NNW 02:20:24 47° W 02:21:12 43° WSW visible
08 Aug 7.5 00:02:18 10° NNE 00:05:26 16° ENE 00:07:09 14° E visible
08 Aug 5.4 01:41:42 10° N 01:46:58 81° W 01:47:37 68° SSW visible
08 Aug 7.6 03:24:44 10° NW 03:26:54 12° WNW 03:28:04 11° W visible
09 Aug 5.7 01:08:11 10° N 01:13:23 60° E 01:14:02 55° ESE visible
09 Aug 7.1 02:49:50 10° NNW 02:53:42 21° W 02:54:30 20° W visible
